"Pseudo-MPEC" for P12oVRt

Created 2026 Aug 17 15:35:07 UT using Find_Orb

Click here for an explanation of pseudo-MPECs

 
 Astrometry: 
     P12oVRt*0C2026 08 07.38562320 59 57.396-39 32 27.69   ~87BZ 21.56wXNEOCPF51
     P12oVRt 0C2026 08 07.39605420 59 56.050-39 32 21.60   ~87BZ 21.44wXNEOCPF51
     P12oVRt 0C2026 08 07.40649120 59 54.726-39 32 14.47   ~87BZ 22.00wXNEOCPF51

Station data:
(F51) Pan-STARRS 1, Haleakala  (N20.707234 W156.255910)  US/Hawaii.
   Observers J. Herman, T. Lowe, P. Minguez, A. Schultz, I. Smith. Measurers
   K. Chambers, T. de Boer, J. Fairlamb, H. Gao, M. Huber, C.-C. Lin, E.
   Magnier, Y. Ramanjooloo, R. Wainscoat, R. Weryk. 1.8-m Ritchey-Chrétien +
   CCD.

Orbital elements:  P12oVRt
   Perihelion 2026 Apr 15.886898 +/- 182 TT = 21:17:07.9 (JD 2461146.386898)
Epoch 2026 Aug  7.0 TT = JDT 2461259.5   Earth MOID: 0.1257   Ju: 0.0647
M   8.038180878 +/- 49              Ve: 0.0857                   AutoNEOCP
n   0.071063216 +/- 0.147           Peri.  206.977218 +/- 100
a   5.772617848 +/- 7.94            Node   354.154729 +/- 49
e   0.86922524 +/- 0.284            Incl.   15.080762 +/- 24
P  13.86945                H 19.45  G  0.15   U 11.5  SR
q 0.754912675 +/- 0.776    Q 10.79032302 +/- 37           (J2000 ecliptic)
From 3 observations 2026 Aug. 7 (30.0 min); mean residual 0".17
Residuals in arcseconds: 
260807 F51  .05+  .17+    260807 F51  .09-  .34-    260807 F51  .04+  .17+    

Ephemerides (geocentric):
Date (UTC) HH   RA             Dec           delta  r     elong  mag " sig PA
---- --------  ------------   ------------  ------ ------ -----  --- --------
2026 08 17 16  20 42 21.950   -37 35 25.52  1.1149 2.0636 151.9 22.0  25d  62
2026 08 17 17  20 42 18.525   -37 34 56.02  1.1156 2.0641 151.8 22.0  26d  63
2026 08 17 18  20 42 15.106   -37 34 26.51  1.1162 2.0646 151.8 22.0  26d  63
2026 08 17 19  20 42 11.694   -37 33 57.00  1.1169 2.0651 151.8 22.0  26d  64
2026 08 17 20  20 42 08.289   -37 33 27.49  1.1175 2.0656 151.7 22.0  26d  64
2026 08 17 21  20 42 04.890   -37 32 57.98  1.1182 2.0661 151.7 22.0  26d  64
2026 08 17 22  20 42 01.498   -37 32 28.46  1.1188 2.0666 151.7 22.0  26d  65
2026 08 17 23  20 41 58.113   -37 31 58.93  1.1194 2.0671 151.7 22.0  27d  65
2026 08 18 00  20 41 54.734   -37 31 29.41  1.1201 2.0675 151.6 22.0  27d  65
2026 08 18 01  20 41 51.362   -37 30 59.88  1.1207 2.0680 151.6 22.1  27d  66
2026 08 18 02  20 41 47.996   -37 30 30.34  1.1214 2.0685 151.6 22.1  27d  66
2026 08 18 03  20 41 44.637   -37 30 00.80  1.1220 2.0690 151.5 22.1  27d  66
2026 08 18 04  20 41 41.284   -37 29 31.26  1.1227 2.0695 151.5 22.1  27d  66
2026 08 18 05  20 41 37.938   -37 29 01.72  1.1233 2.0700 151.5 22.1  27d  67
2026 08 18 06  20 41 34.599   -37 28 32.17  1.1240 2.0705 151.4 22.1  27d  67
2026 08 18 07  20 41 31.266   -37 28 02.62  1.1246 2.0710 151.4 22.1  27d  67
2026 08 18 08  20 41 27.940   -37 27 33.07  1.1253 2.0715 151.4 22.1  27d  67
2026 08 18 09  20 41 24.620   -37 27 03.51  1.1259 2.0719 151.4 22.1  28d  68
2026 08 18 10  20 41 21.307   -37 26 33.95  1.1266 2.0724 151.3 22.1  28d  68
2026 08 18 11  20 41 18.000   -37 26 04.39  1.1273 2.0729 151.3 22.1  28d  68
2026 08 18 12  20 41 14.700   -37 25 34.83  1.1279 2.0734 151.3 22.1  30d  58
2026 08 18 13  20 41 11.406   -37 25 05.26  1.1286 2.0739 151.2 22.1  30d  58
2026 08 18 14  20 41 08.119   -37 24 35.69  1.1292 2.0744 151.2 22.1  30d  58
2026 08 18 15  20 41 04.839   -37 24 06.12  1.1299 2.0749 151.2 22.1  30d  58
2026 08 18 16  20 41 01.565   -37 23 36.54  1.1305 2.0754 151.1 22.1  30d  58
2026 08 18 17  20 40 58.297   -37 23 06.96  1.1312 2.0758 151.1 22.1  30d  58
2026 08 18 18  20 40 55.036   -37 22 37.38  1.1318 2.0763 151.1 22.1  30d  58
2026 08 18 19  20 40 51.782   -37 22 07.79  1.1325 2.0768 151.1 22.1  30d  58
2026 08 18 20  20 40 48.534   -37 21 38.21  1.1331 2.0773 151.0 22.1  30d  58
2026 08 18 21  20 40 45.292   -37 21 08.62  1.1338 2.0778 151.0 22.1  30d  58
2026 08 18 22  20 40 42.057   -37 20 39.03  1.1345 2.0783 151.0 22.1  30d  58
2026 08 18 23  20 40 38.829   -37 20 09.43  1.1351 2.0788 150.9 22.1  30d  58
2026 08 19 00  20 40 35.607   -37 19 39.84  1.1358 2.0793 150.9 22.1  30d  58
2026 08 19 01  20 40 32.391   -37 19 10.24  1.1364 2.0797 150.9 22.1  30d  58
2026 08 19 02  20 40 29.182   -37 18 40.64  1.1371 2.0802 150.8 22.1  30d  58
2026 08 19 03  20 40 25.980   -37 18 11.03  1.1377 2.0807 150.8 22.1  30d  58
2026 08 19 04  20 40 22.783   -37 17 41.43  1.1384 2.0812 150.8 22.1  30d  58
2026 08 19 05  20 40 19.594   -37 17 11.82  1.1391 2.0817 150.7 22.1  30d  58
2026 08 19 06  20 40 16.411   -37 16 42.21  1.1397 2.0822 150.7 22.1  30d  59
2026 08 19 07  20 40 13.234   -37 16 12.60  1.1404 2.0827 150.7 22.1  30d  59
2026 08 19 08  20 40 10.064   -37 15 42.99  1.1410 2.0832 150.7 22.1  30d  59
2026 08 19 09  20 40 06.900   -37 15 13.37  1.1417 2.0836 150.6 22.1  30d  59
2026 08 19 10  20 40 03.742   -37 14 43.76  1.1424 2.0841 150.6 22.1  30d  59
2026 08 19 11  20 40 00.592   -37 14 14.14  1.1430 2.0846 150.6 22.1  30d  59
2026 08 19 12  20 39 57.447   -37 13 44.52  1.1437 2.0851 150.5 22.1  30d  59
2026 08 19 13  20 39 54.309   -37 13 14.89  1.1443 2.0856 150.5 22.1  30d  59
2026 08 19 14  20 39 51.177   -37 12 45.27  1.1450 2.0861 150.5 22.1  30d  59
2026 08 19 15  20 39 48.052   -37 12 15.64  1.1457 2.0866 150.4 22.1  30d  59